Theta_e
319 321 321 320 319 315 315 316 315 317 317 318 318 318 317 317 317 317 317 317 317 317 316 315 314 314 314 315 315 316 315 315 316 317 317 318 319 319 319 319 320 321 322 322
320 320 317 317 319 318 317 317 317 317 317 318 318 318 318 317 317 317 317 316 316 316 315 312 312 313 314 315 316 316 316 316 316 316 317 317 317 317 319 320 320 321 322 323
317 315 316 318 319 320 320 319 317 316 317 317 318 317 316 316 315 315 316 316 316 314 312 311 312 313 314 315 316 316 316 316 316 316 316 316 317 318 319 321 320 321 323 324
317 315 317 318 318 318 320 318 318 318 319 320 316 320 316 316 316 315 315 315 314 312 310 310 311 312 313 314 315 316 317 317 316 316 315 316 321 324 325 326 326 325 325 325
315 317 316 318 319 318 318 317 318 319 319 319 318 318 316 314 315 315 314 315 312 311 309 309 310 311 311 312 313 314 316 317 318 318 317 317 322 324 326 326 325 325 326 326
314 311 315 315 315 316 315 316 316 317 318 320 317 317 314 315 314 315 314 313 311 309 309 309 309 309 310 311 311 312 312 313 315 317 319 320 320 322 323 323 325 325 326 325
314 313 313 313 316 315 317 317 317 319 319 316 313 316 315 313 313 313 314 312 310 308 307 307 308 309 309 310 310 311 311 312 312 312 312 313 315 318 320 321 323 325 325 324
315 315 314 313 314 315 318 316 315 315 317 314 312 316 315 314 313 312 311 311 308 306 306 307 307 307 308 308 308 309 309 309 310 310 310 310 310 310 311 311 312 312 314 316
313 313 311 313 313 314 316 318 314 313 307 313 312 313 311 312 312 311 311 309 308 305 304 305 305 305 305 306 306 306 306 305 306 306 307 307 307 307 307 308 308 308 309 310
311 312 310 311 311 312 314 313 315 315 316 316 312 312 311 311 312 313 311 310 307 304 304 303 303 303 303 304 304 305 305 305 305 304 303 303 302 302 302 302 303 303 303 304
309 310 309 310 313 314 312 314 314 314 315 314 312 311 311 311 310 310 309 310 307 303 302 301 301 301 301 301 301 301 300 301 301 302 304 305 306 307 307 307 306 304 303 303
310 310 311 312 308 309 313 312 313 313 314 313 312 312 308 309 310 309 309 309 305 302 301 300 300 299 299 300 300 300 299 299 299 300 300 299 299 299 299 299 302 304 306 306
310 310 313 310 308 305 311 313 313 313 310 313 314 312 309 308 308 307 309 308 302 300 299 300 298 298 298 299 299 298 298 299 299 298 297 297 297 297 297 297 296 296 297 297
309 311 312 313 310 310 311 312 312 313 314 313 312 311 311 308 307 307 307 305 301 299 298 296 297 297 298 298 298 297 297 297 296 295 295 295 295 295 295 295 295 295 296 296
310 312 311 311 310 307 309 310 312 313 313 313 312 312 311 310 309 308 307 304 299 296 295 296 295 296 297 296 296 296 295 294 293 293 293 293 293 293 293 293 294 294 294 294
309 312 310 310 310 309 308 307 310 312 312 312 312 311 310 309 309 307 305 302 299 296 295 296 295 295 295 294 294 294 293 292 292 291 291 291 291 291 292 292 292 292 292 292
310 310 310 311 309 310 310 309 308 308 310 311 312 311 310 310 306 304 304 302 300 296 296 295 294 294 293 292 292 292 291 291 290 290 290 290 290 290 290 290 290 290 290 291
309 309 310 310 306 309 309 308 308 309 308 308 309 309 309 309 308 304 304 304 300 297 294 292 293 292 291 290 290 289 289 289 289 288 288 288 288 288 288 288 288 288 289 289
309 309 309 310 310 308 306 305 306 308 309 308 307 307 307 307 300 301 302 300 298 295 292 292 291 290 288 288 287 287 287 287 287 287 287 286 286 286 287 287 287 287 287 287
307 308 309 311 311 310 308 307 302 305 308 308 307 307 307 299 304 306 298 297 294 294 292 291 289 287 286 286 286 286 286 285 285 285 285 285 285 285 285 285 285 285 285 285
307 307 307 307 308 307 305 302 302 307 308 305 306 306 306 300 304 299 298 292 293 292 290 289 287 286 285 285 285 284 284 284 284 284 284 284 284 284 284 284 284 284 284 284
305 306 307 307 307 306 305 299 305 306 301 298 299 301 303 300 297 295 291 288 287 287 286 284 284 284 284 284 284 284 284 284 284 283 283 283 283 283 283 283 283 282 282 282
304 305 305 306 305 300 299 302 302 300 297 296 296 298 297 295 290 286 284 285 285 285 284 283 283 283 283 283 283 283 283 283 283 283 282 282 281 281 281 280 280 279 279 278
301 301 304 304 304 300 298 299 300 298 297 296 296 294 294 293 288 284 284 284 284 284 283 283 282 282 282 282 282 283 283 282 281 280 280 279 279 279 278 278 277 277 276 276
302 300 302 302 300 293 296 296 294 295 293 292 293 292 292 290 286 286 284 283 282 282 282 281 281 281 282 282 282 281 280 279 279 279 278 278 278 278 278 277 276 276 275 274
299 302 302 304 301 301 301 299 297 292 292 291 291 291 288 287 287 284 283 282 281 281 281 281 281 281 282 281 280 279 278 278 278 278 278 277 277 276 276 275 275 275 274 273
Wind_Speed
18 10 15 18 18 5 7 8 7 5 5 5 13 14 15 16 18 20 22 22 21 20 17 12 13 13 15 17 19 21 23 23 25 27 28 29 30 31 32 33 34 33 32 30
7 18 14 12 14 14 7 7 6 2 4 4 9 14 15 24 19 24 24 23 20 12 8 7 8 8 10 11 12 15 18 21 23 24 25 24 23 24 25 25 28 27 28 28
15 2 20 13 11 14 14 14 11 8 3 6 10 14 9 9 10 16 19 16 8 5 2 3 3 5 6 7 9 10 12 14 19 23 23 22 22 21 21 20 21 23 23 24
13 7 13 14 16 14 16 10 7 5 3 4 4 7 8 8 12 9 10 12 8 6 4 3 3 5 6 8 8 8 8 11 12 14 18 17 13 12 12 13 14 16 17 18
7 11 11 15 14 13 6 11 11 8 8 9 12 4 5 4 14 16 17 7 8 9 8 6 7 8 9 10 11 12 11 6 4 5 6 9 9 9 9 10 12 13 14 14
12 1 10 14 6 15 11 8 4 2 2 8 14 11 9 12 12 12 14 9 12 10 9 7 6 7 7 8 10 12 13 13 12 10 7 4 5 8 10 11 12 12 13 14
9 13 3 4 10 5 14 14 4 6 6 8 0 13 18 7 13 14 11 14 13 12 9 8 7 6 4 4 6 8 9 10 11 11 11 10 8 7 7 8 9 11 12 12
12 8 15 11 14 9 18 14 6 7 7 5 3 11 6 12 17 6 4 17 14 13 11 9 7 5 3 2 2 3 4 5 5 6 8 8 9 8 8 9 11 12 13 15
12 14 4 11 8 16 8 13 13 1 2 3 7 8 10 10 12 13 13 16 15 13 11 9 7 5 3 2 1 1 2 3 3 4 3 3 3 2 3 6 9 11 13 14
6 4 2 13 7 12 10 10 5 6 8 9 11 15 13 10 16 17 13 17 15 14 13 11 9 6 4 2 3 3 3 4 5 5 5 6 6 7 9 9 7 8 11 14
7 3 3 7 15 20 8 12 7 5 9 9 8 9 10 18 16 16 19 23 22 18 16 14 11 8 6 4 3 3 3 4 6 7 8 11 13 15 16 17 19 18 18 18
15 6 9 13 1 9 19 17 19 9 9 11 12 15 7 7 12 16 18 23 21 20 18 14 12 10 8 6 5 5 5 6 7 8 9 10 12 12 13 14 16 19 22 23
15 7 5 5 5 2 11 17 18 18 4 14 11 14 8 13 12 14 21 24 22 21 19 17 14 12 10 8 7 6 6 8 9 11 12 13 15 15 16 16 16 17 18 19
25 10 14 17 15 11 10 17 20 18 8 20 18 27 22 10 10 13 20 23 22 23 21 18 16 14 11 9 8 8 9 9 10 11 12 13 14 14 14 14 14 14 15 16
12 8 17 21 17 9 18 21 20 22 28 19 24 25 26 21 16 19 23 23 23 23 22 20 18 16 13 11 10 10 10 10 11 11 12 12 11 11 11 10 11 11 13 14
9 7 10 15 20 20 17 13 20 28 27 24 29 26 23 27 24 22 26 29 28 25 26 24 21 18 15 12 10 10 9 10 10 11 10 10 11 12 13 13 14 15 16 17
13 11 7 15 17 17 13 25 25 21 25 25 25 31 27 24 18 23 26 32 36 30 29 28 23 18 14 12 10 9 8 8 8 9 9 10 11 14 15 18 19 22 24 26
12 15 11 11 3 16 16 20 25 29 26 24 23 26 30 26 30 26 31 39 35 34 30 26 22 18 14 11 9 7 6 6 6 7 8 10 12 15 17 20 22 24 26 27
13 12 8 10 14 14 4 10 16 18 26 27 25 29 38 31 12 22 32 30 31 32 29 25 20 16 12 9 7 5 4 3 3 6 8 11 14 16 18 20 22 24 24 25
7 8 10 5 7 15 13 17 1 5 13 21 26 25 27 15 11 21 28 31 32 31 28 24 18 14 11 8 6 4 2 2 4 6 9 12 15 18 20 22 24 25 25 25
4 6 11 13 8 3 10 5 10 9 11 16 22 35 29 14 22 13 23 30 31 29 25 21 17 14 10 7 5 3 1 2 4 7 10 13 16 18 21 22 24 26 27 28
13 8 7 7 7 12 16 7 11 15 14 9 12 19 25 28 19 16 25 29 29 26 23 19 16 13 9 7 6 4 2 2 6 9 12 14 16 19 20 22 23 24 26 28
8 12 12 9 5 2 15 15 27 16 12 10 12 13 18 22 19 22 27 28 26 24 20 16 13 12 11 8 6 3 2 5 8 10 13 15 17 19 21 22 24 25 26 26
7 8 8 10 10 9 17 23 22 23 24 17 15 15 19 22 23 25 25 25 25 23 19 16 14 12 9 7 3 2 4 7 11 13 15 17 19 21 22 23 24 25 25 25
7 9 8 6 8 7 20 28 25 25 20 18 15 16 19 22 24 25 25 24 22 20 18 16 14 12 8 5 3 4 7 10 13 16 18 20 21 23 24 23 23 23 22 21
9 9 6 9 7 10 15 16 30 27 23 20 22 21 19 23 28 26 24 22 20 19 17 15 13 10 7 5 4 6 9 12 14 17 19 21 22 22 23 24 23 21 22 21
Wind_Direction
181 202 203 198 205 215 217 216 209 180 185 218 242 257 269 264 264 268 265 261 263 272 290 302 302 301 299 288 281 278 276 273 267 262 263 264 268 273 274 275 275 274 277 277
184 220 211 201 203 208 196 200 204 200 182 242 271 269 272 269 256 248 255 261 268 270 290 299 302 310 312 312 304 292 282 275 268 266 260 263 268 271 273 276 276 271 273 276
210 284 206 188 187 201 225 236 244 256 325 236 296 282 257 261 262 246 247 248 261 266 240 290 320 344 349 340 329 319 309 291 272 261 259 261 266 264 272 279 280 280 283 283
229 200 195 196 204 199 225 208 205 190 270 258 50 295 255 255 272 256 232 236 243 177 155 130 97 58 43 34 24 2 335 316 302 279 263 260 257 267 275 279 277 282 291 293
191 189 190 210 208 197 212 163 197 220 247 281 251 253 248 262 253 251 248 219 174 158 154 133 106 87 79 72 66 59 50 30 347 316 277 261 266 272 279 285 288 298 301 301
230 165 215 215 180 192 147 117 91 135 228 252 232 215 237 217 238 232 244 191 163 160 165 157 124 101 87 76 67 62 57 57 58 55 47 12 314 288 275 272 276 285 295 296
192 212 183 169 175 153 172 171 184 201 204 244 200 213 251 208 248 236 199 177 168 167 165 159 153 141 125 104 77 65 58 51 50 51 49 47 39 10 333 311 296 293 289 288
200 202 195 182 203 184 198 187 189 203 213 232 152 227 246 224 230 204 197 186 171 167 171 169 166 164 155 116 73 67 73 83 80 59 50 38 29 20 4 348 337 328 317 301
203 218 203 183 183 185 183 216 216 290 80 246 213 240 268 233 224 212 160 171 171 173 178 178 175 172 172 182 158 71 61 50 39 31 22 356 347 5 4 349 340 332 324 318
189 196 169 181 187 219 203 168 180 203 224 234 236 245 240 194 214 211 198 193 186 181 183 183 186 192 204 230 266 283 300 303 324 330 337 344 344 344 342 338 329 322 321 319
169 218 128 157 203 195 188 204 214 216 223 230 252 244 237 229 204 206 209 201 191 184 189 192 194 197 205 224 255 285 321 341 350 346 328 320 314 311 313 313 316 323 323 321
200 207 212 203 118 254 216 212 203 204 203 240 256 257 170 218 225 229 209 190 187 191 193 196 204 208 214 228 246 263 292 313 325 327 324 321 317 314 313 314 311 305 301 302
176 204 185 203 222 232 222 215 221 229 263 218 221 257 239 217 227 210 195 188 188 192 196 202 208 214 223 240 260 276 294 307 313 316 317 316 314 314 313 313 314 315 315 313
170 206 219 228 230 177 211 212 213 216 222 235 230 248 248 219 219 198 195 195 190 196 200 203 209 216 225 240 257 272 290 302 310 314 316 317 316 317 320 323 323 323 323 325
181 222 220 241 249 240 227 215 211 215 228 230 246 242 252 251 232 208 203 191 193 196 201 207 213 220 226 237 253 272 291 304 312 318 322 326 330 335 339 342 344 346 345 345
197 232 214 242 240 233 242 234 219 216 227 235 244 253 253 258 258 223 200 198 199 203 206 210 215 219 226 237 251 268 286 303 315 323 334 342 344 346 348 351 352 353 354 353
181 217 190 239 241 238 233 228 230 228 227 229 235 244 252 253 231 217 213 204 207 205 209 210 212 217 227 240 253 268 284 299 309 318 332 345 353 356 356 357 356 356 357 356
191 206 221 239 164 233 239 234 223 228 232 232 243 251 253 249 251 234 224 217 208 211 206 205 209 216 226 237 251 267 281 293 312 329 345 356 1 1 359 358 357 357 357 356
227 193 226 231 232 256 264 233 209 208 233 234 236 243 252 251 258 254 231 222 212 206 200 204 209 215 222 232 244 249 260 292 335 350 359 2 3 1 358 358 355 352 351 351
220 219 215 205 228 236 245 261 245 190 244 243 228 240 246 187 221 248 218 210 201 197 198 201 205 208 212 219 224 226 244 355 14 13 8 2 359 353 352 352 349 347 345 344
205 225 230 254 267 252 255 232 168 207 243 269 219 225 240 201 232 258 196 192 196 194 195 198 199 200 204 208 201 188 152 42 13 4 358 352 350 346 346 346 343 341 340 339
186 189 205 222 234 253 206 124 203 226 253 257 242 243 220 212 218 189 180 182 182 185 187 191 190 191 188 191 184 176 179 354 353 348 346 344 340 340 339 337 337 336 334 335
213 210 217 208 224 174 195 216 216 225 237 263 266 251 211 190 185 175 171 176 178 181 184 185 188 186 183 179 177 175 327 341 336 337 337 334 334 333 333 333 333 335 335 334
230 220 234 240 226 222 230 231 234 234 233 240 243 238 212 195 183 172 172 174 178 181 180 183 183 181 178 174 182 274 316 325 329 329 328 328 328 328 329 331 331 332 333 331
242 160 202 248 268 274 259 247 244 230 228 224 215 220 209 193 179 177 174 177 179 179 176 179 180 182 183 194 243 296 313 322 324 325 327 327 327 327 326 326 326 327 330 330
189 206 214 240 260 232 264 265 236 227 218 207 194 184 188 193 180 179 177 178 181 177 174 177 182 187 200 223 266 298 311 318 320 320 320 320 320 321 322 321 321 323 325 326